Home > Products > State Listing > Mississippi Data
Latest:
 RWRMS |
  [top]

000
ASUS44 KJAN 310110
RWRMS

MISSISSIPPI HOURLY WEATHER ROUNDUP
NATIONAL WEATHER SERVICE JACKSON MS
800 PM CDT MON MAY 30 2016

NOTE: "FAIR: INDICATES FEW OR NO CLOUDS BELOW 12,000 FEET WITH NO
SIGNIFICANT WEATHER AND/OR OBSTRUCTIONS TO VISIBILITY.

MSZ001>002-007>008-010>013-018>021-025>028-034>036-310200-
NORTHWEST MISSISSIPPI

CITY           SKY/WX    TMP DP  RH WIND       PRES   REMARKS
BATESVILLE     FAIR      78  71  78 CALM      29.96R
CLARKSDALE     CLEAR     82  77  83 CALM      29.95R HX  91
CLEVELAND      FAIR      76  67  72 NE10      29.94R
GREENWOOD      CLOUDY    81  68  64 NW6       29.92S
GREENVILLE     CLOUDY    75  67  76 CALM      29.93S
OLIVE BRANCH   MOCLDY    81  64  57 CALM      29.96S
OXFORD         FAIR      77  68  73 CALM      29.97S
TUNICA         CLOUDY    81  68  65 CALM      29.96R
WINONA         FAIR      80  69  68 CALM      29.93S
$$

MSZ003>006-009-014>017-022>024-029>033-037>039-310200-
NORTHEAST MISSISSIPPI

CITY           SKY/WX    TMP DP  RH WIND       PRES   REMARKS
COLUMBUS AFB   CLEAR     80  71  74 NW1       29.92S
CORINTH        FAIR      79  66  65 N3        29.95S
GOLDN TRIANGLE CLEAR     84  63  48 NW7       29.93S
STARKVILLE     FAIR      77  64  65 CALM      29.93R
TUPELO         CLEAR     82  60  47 NW3       29.94S
$$

MSZ040-058-310200-
CENTRAL MISSISSIPPI

CITY           SKY/WX    TMP DP  RH WIND       PRES   REMARKS
JACKSON INTL   MOCLDY    83  67  58 E3        29.93R
JACKSON HAWKNS PTCLDY    80  65  59 W3        29.94R
MADISON        FAIR      79  64  61 CALM      29.93R
MERIDIAN KEY   CLEAR     81  68  64 CALM      29.93S
MERIDIAN NAS   CLEAR     82  65  56 CALM      29.93S
VICKSBURG TVR  MOCLDY    79  71  76 CALM      29.93R
VICKSBURG VKS  CLEAR     81  66  61 SW8       29.94R
$$

MSZ059>079-310200-
SOUTH MISSISSIPPI

CITY           SKY/WX    TMP DP  RH WIND       PRES   REMARKS
BROOKHAVEN     FAIR     N/A N/A N/A S9G16     29.98R
COLUMBIA       MOCLDY    77  68  73 W5        30.00R
HATTIESBURG    MOCLDY    80  70  71 CALM      29.94R
MCCOMB         CLOUDY    70  68  93 N6        29.98R
NATCHEZ        CLOUDY    75  68  78 SE9       29.96R
PINE BELT      PTCLDY    81  57  44 S7        29.96R
$$

MSZ080>082-310200-
COASTAL MISSISSIPPI

CITY           SKY/WX    TMP DP  RH WIND       PRES   REMARKS
BAY ST LOUIS   CLEAR     79  70  73 CALM      29.94R
BILOXI         CLOUDY    79  67  67 CALM      29.93R
PASCAGOULA     CLOUDY    71  69  93 CALM      29.93F
GULFPORT       CLOUDY    76  73  91 CALM      29.93R
$$





000
ASUS44 KJAN 310003
RWRMS

MISSISSIPPI HOURLY WEATHER ROUNDUP
NATIONAL WEATHER SERVICE JACKSON MS
700 PM CDT MON MAY 30 2016

NOTE: "FAIR: INDICATES FEW OR NO CLOUDS BELOW 12,000 FEET WITH NO
SIGNIFICANT WEATHER AND/OR OBSTRUCTIONS TO VISIBILITY.

MSZ001>002-007>008-010>013-018>021-025>028-034>036-310100-
NORTHWEST MISSISSIPPI

CITY           SKY/WX    TMP DP  RH WIND       PRES   REMARKS
BATESVILLE     FAIR      83  67  58 CALM      29.96R
CLARKSDALE     SUNNY     86  68  54 CALM      29.94S
CLEVELAND      FAIR      77  67  69 SE5       29.94F
GREENWOOD      PTSUNNY   81  69  67 N3        29.92F
6HR MIN TEMP:  81; 6HR MAX TEMP:  92;

GREENVILLE     MOSUNNY   76  66  71 E6        29.93F
6HR MIN TEMP:  70; 6HR MAX TEMP:  91; 6HR PCP:  0.33;

OLIVE BRANCH   PTSUNNY   84  64  51 E5        29.96S
OXFORD         FAIR      82  64  54 N3        29.97S
TUNICA         PTCLDY    82  64  54 NE5       29.95R
WINONA         FAIR      84  67  56 CALM      29.93F
$$

MSZ003>006-009-014>017-022>024-029>033-037>039-310100-
NORTHEAST MISSISSIPPI

CITY           SKY/WX    TMP DP  RH WIND       PRES   REMARKS
COLUMBUS AFB   NOT AVBL
CORINTH        FAIR      82  64  54 N5        29.95S
GOLDN TRIANGLE SUNNY     93  64  38 N5        29.93R HX  95
STARKVILLE     FAIR      88  63  42 CALM      29.93R
TUPELO         SUNNY     87  61  41 NW6       29.94R
6HR MIN TEMP:  87; 6HR MAX TEMP:  92;

$$

MSZ040-058-310100-
CENTRAL MISSISSIPPI

CITY           SKY/WX    TMP DP  RH WIND       PRES   REMARKS
JACKSON INTL   CLOUDY    85  67  54 NE3       29.92S
6HR MIN TEMP:  85; 6HR MAX TEMP:  95;

JACKSON HAWKNS CLOUDY    87  60  40 CALM      29.92S
6HR MIN TEMP:  86; 6HR MAX TEMP:  93; 6HR PCP: TRACE;

MADISON        FAIR      82  68  61 CALM      29.92S
MERIDIAN KEY   SUNNY     90  64  42 E5        29.93S HX  91
6HR MIN TEMP:  89; 6HR MAX TEMP:  97; 6HR PCP: TRACE;

MERIDIAN NAS   SUNNY     86  65  49 CALM      29.93S
6HR MIN TEMP:  86; 6HR MAX TEMP:  94;

VICKSBURG TVR  MOSUNNY   83  69  62 N6        29.92S
6HR MIN TEMP:  82; 6HR MAX TEMP:  94;

VICKSBURG VKS  CLEAR     84  70  61 W5        29.92R
$$

MSZ059>079-310100-
SOUTH MISSISSIPPI

CITY           SKY/WX    TMP DP  RH WIND       PRES   REMARKS
BROOKHAVEN     HVY RAIN N/A N/A N/A NW10      29.96R
COLUMBIA       FAIR      79  68  69 SW5       29.97R
HATTIESBURG    PTSUNNY   83  69  62 S9        29.93R
6HR MIN TEMP:  83; 6HR MAX TEMP:  95;

MCCOMB         TSTM      69  66  90 SW7       30.01R FOG
6HR MIN TEMP:  69; 6HR MAX TEMP:  91;

NATCHEZ        CLOUDY    75  66  73 E6        29.93S
6HR MIN TEMP:  70; 6HR MAX TEMP:  90; 6HR PCP:  0.39;

PINE BELT      MOSUNNY   84  70  61 CALM      29.94S
6HR MIN TEMP:  84; 6HR MAX TEMP:  93;

$$

MSZ080>082-310100-
COASTAL MISSISSIPPI

CITY           SKY/WX    TMP DP  RH WIND       PRES   REMARKS
BAY ST LOUIS   CLEAR     82  66  57 S6        29.93S
BILOXI         CLOUDY    80  66  63 SW2       29.92F
6HR MIN TEMP:  79; 6HR MAX TEMP:  91; 6HR PCP: TRACE;

PASCAGOULA     MOCLDY    74  69  85 CALM      29.94S
6HR MIN TEMP:  73; 6HR MAX TEMP:  92; 6HR PCP:  0.01;

GULFPORT       PTCLDY    76  69  79 CALM      29.92F
6HR MIN TEMP:  74; 6HR MAX TEMP:  92; 6HR PCP:  0.57;

$$





000
ASUS44 KJAN 302310
RWRMS

MISSISSIPPI HOURLY WEATHER ROUNDUP
NATIONAL WEATHER SERVICE JACKSON MS
600 PM CDT MON MAY 30 2016

NOTE: "FAIR: INDICATES FEW OR NO CLOUDS BELOW 12,000 FEET WITH NO
SIGNIFICANT WEATHER AND/OR OBSTRUCTIONS TO VISIBILITY.

MSZ001>002-007>008-010>013-018>021-025>028-034>036-310000-
NORTHWEST MISSISSIPPI

CITY           SKY/WX    TMP DP  RH WIND       PRES   REMARKS
BATESVILLE     FAIR      87  63  43 CALM      29.95F
CLARKSDALE     SUNNY     90  66  45 CALM      29.94S HX  92
CLEVELAND      FAIR      85  69  58 CALM      29.95R
GREENWOOD      CLOUDY    88  61  40 NE6       29.93F
GREENVILLE     LGT RAIN  75  64  68 NE8       29.95R
OLIVE BRANCH   PTSUNNY   86  63  45 E6        29.96F
OXFORD         FAIR      86  63  45 N6        29.97F
TUNICA         PTCLDY    84  64  51 N5        29.95F
WINONA         FAIR      88  61  40 CALM      29.93F
$$

MSZ003>006-009-014>017-022>024-029>033-037>039-310000-
NORTHEAST MISSISSIPPI

CITY           SKY/WX    TMP DP  RH WIND       PRES   REMARKS
COLUMBUS AFB   SUNNY     90  64  41 N6        29.92F HX  91
CORINTH        FAIR      86  61  42 VRB5      29.95S
GOLDN TRIANGLE MOSUNNY   93  63  36 NE5       29.92F HX  94
STARKVILLE     FAIR      90  59  35 NW3       29.92F
TUPELO         SUNNY     89  60  37 NW7       29.93F
$$

MSZ040-058-310000-
CENTRAL MISSISSIPPI

CITY           SKY/WX    TMP DP  RH WIND       PRES   REMARKS
JACKSON INTL   MOSUNNY   90  62  39 N8        29.92F HX  90
JACKSON HAWKNS MOSUNNY   89  59  36 N3        29.92F
MADISON        FAIR      88  63  42 CALM      29.92F
MERIDIAN KEY   CLOUDY    91  65  41 E5        29.93F HX  93
MERIDIAN NAS   MOSUNNY   91  59  33 CALM      29.93F HX  90
VICKSBURG TVR  CLOUDY    84  70  62 NW3       29.92F
VICKSBURG VKS  CLEAR     88  66  48 W3        29.92F HX  90
$$

MSZ059>079-310000-
SOUTH MISSISSIPPI

CITY           SKY/WX    TMP DP  RH WIND       PRES   REMARKS
BROOKHAVEN     LGT RAIN N/A N/A N/A S5        29.93F
COLUMBIA       FAIR      82  68  61 S12       29.97R
HATTIESBURG    CLOUDY    88  64  44 S6G16     29.92F
MCCOMB         CLOUDY    84  68  58 SE12      29.92F
NATCHEZ        CLOUDY    75  66  73 CALM      29.93F
PINE BELT      SUNNY     90  61  37 NE6       29.94F
$$

MSZ080>082-310000-
COASTAL MISSISSIPPI

CITY           SKY/WX    TMP DP  RH WIND       PRES   REMARKS
BAY ST LOUIS   SUNNY     82  68  61 S6        29.93F
BILOXI         CLOUDY    80  67  64 SW2       29.93F THUNDER
PASCAGOULA     CLOUDY    75  69  81 NW3       29.94F
GULFPORT       LGT RAIN  78  71  79 SE29G36   29.95S
$$





000
ASUS44 KJAN 302303
RWRMS

MISSISSIPPI HOURLY WEATHER ROUNDUP
NATIONAL WEATHER SERVICE JACKSON MS
600 PM CDT MON MAY 30 2016

NOTE: "FAIR: INDICATES FEW OR NO CLOUDS BELOW 12,000 FEET WITH NO
SIGNIFICANT WEATHER AND/OR OBSTRUCTIONS TO VISIBILITY.

MSZ001>002-007>008-010>013-018>021-025>028-034>036-310000-
NORTHWEST MISSISSIPPI

CITY           SKY/WX    TMP DP  RH WIND       PRES   REMARKS
BATESVILLE     FAIR      87  63  43 CALM      29.95F
CLARKSDALE     SUNNY     90  66  45 CALM      29.94S HX  92
CLEVELAND      FAIR      85  69  58 CALM      29.95R
GREENWOOD      CLOUDY    88  61  40 NE6       29.93F
GREENVILLE     LGT RAIN  75  64  68 NE8       29.95R
OLIVE BRANCH   PTSUNNY   86  63  45 E6        29.96F
OXFORD         FAIR      86  63  45 N6        29.97F
TUNICA         PTCLDY    84  64  51 N5        29.95F
WINONA         FAIR      88  61  40 CALM      29.93F
$$

MSZ003>006-009-014>017-022>024-029>033-037>039-310000-
NORTHEAST MISSISSIPPI

CITY           SKY/WX    TMP DP  RH WIND       PRES   REMARKS
COLUMBUS AFB   SUNNY     90  64  41 N6        29.92F HX  91
CORINTH        FAIR      86  61  42 VRB5      29.95S
GOLDN TRIANGLE MOSUNNY   93  63  36 NE5       29.92F HX  94
STARKVILLE     FAIR      90  59  35 NW3       29.92F
TUPELO         SUNNY     89  60  37 NW7       29.93F
$$

MSZ040-058-310000-
CENTRAL MISSISSIPPI

CITY           SKY/WX    TMP DP  RH WIND       PRES   REMARKS
JACKSON INTL   MOSUNNY   90  62  39 N8        29.92F HX  90
JACKSON HAWKNS MOSUNNY   89  59  36 N3        29.92F
MADISON        FAIR      88  63  42 CALM      29.92F
MERIDIAN KEY   CLOUDY    91  65  41 E5        29.93F HX  93
MERIDIAN NAS   MOSUNNY   91  59  33 CALM      29.93F HX  90
VICKSBURG TVR  CLOUDY    84  70  62 NW3       29.92F
VICKSBURG VKS  CLEAR     88  66  48 W3        29.92F HX  90
$$

MSZ059>079-310000-
SOUTH MISSISSIPPI

CITY           SKY/WX    TMP DP  RH WIND       PRES   REMARKS
BROOKHAVEN     LGT RAIN N/A N/A N/A S5        29.93F
COLUMBIA       FAIR      82  68  61 S12       29.97R
HATTIESBURG    CLOUDY    88  64  44 S6G16     29.92F
MCCOMB         CLOUDY    84  68  58 SE12      29.92F
NATCHEZ        CLOUDY    75  66  73 CALM      29.93F
PINE BELT      SUNNY     90  61  37 NE6       29.94F
$$

MSZ080>082-310000-
COASTAL MISSISSIPPI

CITY           SKY/WX    TMP DP  RH WIND       PRES   REMARKS
BAY ST LOUIS   SUNNY     82  68  61 S6        29.93F
BILOXI         CLOUDY    80  67  64 SW2       29.93F THUNDER
PASCAGOULA     CLOUDY    75  69  81 NW3       29.94F
GULFPORT       CLOUDY    83  66  56 NE10G18   29.93F
$$





000
ASUS44 KJAN 301810
RWRMS

MISSISSIPPI HOURLY WEATHER ROUNDUP
NATIONAL WEATHER SERVICE JACKSON MS
100 PM CDT MON MAY 30 2016

NOTE: "FAIR: INDICATES FEW OR NO CLOUDS BELOW 12,000 FEET WITH NO
SIGNIFICANT WEATHER AND/OR OBSTRUCTIONS TO VISIBILITY.

MSZ001>002-007>008-010>013-018>021-025>028-034>036-301900-
NORTHWEST MISSISSIPPI

CITY           SKY/WX    TMP DP  RH WIND       PRES   REMARKS
BATESVILLE     FAIR      88  65  45 CALM      30.03F
CLARKSDALE     MOSUNNY   86  68  54 CALM      30.03F
CLEVELAND      FAIR      87  67  50 CALM      30.02F
GREENWOOD      SUNNY     90  62  39 CALM      30.02F HX  90
6HR MIN TEMP:  68; 6HR MAX TEMP:  90;

GREENVILLE     MOSUNNY   89  66  46 CALM      30.02F HX  91
OLIVE BRANCH   MOSUNNY   86  64  48 VRB5      30.03F
OXFORD         FAIR      86  63  45 N3        30.05F
TUNICA         CLEAR     84  64  51 CALM      30.03F
WINONA         FAIR      87  64  46 CALM      30.03S
$$

MSZ003>006-009-014>017-022>024-029>033-037>039-301900-
NORTHEAST MISSISSIPPI

CITY           SKY/WX    TMP DP  RH WIND       PRES   REMARKS
COLUMBUS AFB   MOSUNNY   89  66  46 NW8       30.01F HX  91
6HR MIN TEMP:  71; 6HR MAX TEMP:  89;

CORINTH        FAIR      86  63  45 N6        30.03F
GOLDN TRIANGLE MOSUNNY   91  64  40 NW9       30.02F HX  93
STARKVILLE     FAIR      90  63  40 N6        30.01F HX  90
TUPELO         PTSUNNY   88  62  41 VRB5      30.02F
6HR MIN TEMP:  72; 6HR MAX TEMP:  89;

$$

MSZ040-058-301900-
CENTRAL MISSISSIPPI

CITY           SKY/WX    TMP DP  RH WIND       PRES   REMARKS
JACKSON INTL   MOSUNNY   91  62  37 N5        30.02F HX  91
6HR MIN TEMP:  70; 6HR MAX TEMP:  92;

JACKSON HAWKNS SUNNY     90  64  42 VRB7      30.02F HX  91
6HR MIN TEMP:  69; 6HR MAX TEMP:  91;

MADISON        FAIR      88  66  48 SE5       30.02F HX  90
MERIDIAN KEY   MOSUNNY   94  62  34 NW6       30.02F HX  94
6HR MIN TEMP:  71; 6HR MAX TEMP:  94;

MERIDIAN NAS   MOSUNNY   91  63  39 N7        30.02F HX  92
6HR MIN TEMP:  70; 6HR MAX TEMP:  93;

VICKSBURG TVR  SUNNY     90  68  48 E5        30.02F HX  94
6HR MIN TEMP:  71; 6HR MAX TEMP:  91;

VICKSBURG VKS  CLEAR     88  68  51 CALM      30.02F HX  91
$$

MSZ059>079-301900-
SOUTH MISSISSIPPI

CITY           SKY/WX    TMP DP  RH WIND       PRES   REMARKS
BROOKHAVEN     FAIR     N/A N/A N/A N5        30.03F
COLUMBIA       FAIR      90  66  45 VRB5      30.04F HX  92
HATTIESBURG    SUNNY     91  65  41 CALM      30.01F HX  93
6HR MIN TEMP:  71; 6HR MAX TEMP:  92;

MCCOMB         MOSUNNY   88  64  44 SE7       30.01F
6HR MIN TEMP:  70; 6HR MAX TEMP:  91;

NATCHEZ        MOSUNNY   88  70  55 N5        30.01F HX  92
6HR MIN TEMP:  66; 6HR MAX TEMP:  88;

PINE BELT      SUNNY     90  64  43 E5        30.03F HX  91
6HR MIN TEMP:  72; 6HR MAX TEMP:  91;

$$

MSZ080>082-301900-
COASTAL MISSISSIPPI

CITY           SKY/WX    TMP DP  RH WIND       PRES   REMARKS
BAY ST LOUIS   MOSUNNY   88  61  40 SE7       30.00F
BILOXI         SUNNY     91  69  47 S8        30.00F HX  95
6HR MIN TEMP:  76; 6HR MAX TEMP:  91;

PASCAGOULA     MOSUNNY   90  69  50 VRB3      30.00F HX  94
6HR MIN TEMP:  72; 6HR MAX TEMP:  92;

GULFPORT       SUNNY     91  67  44 S8        29.99F HX  94
6HR MIN TEMP:  74; 6HR MAX TEMP:  92;

$$





    US Dept of Commerce
    National Oceanic and Atmospheric Administration
    National Weather Service
    1325 East West Highway
    Silver Spring, MD 20910
    Page Author: NWS Internet Services Team
Disclaimer
Information Quality
Credits
Glossary
Privacy Policy
Freedom of Information Act (FOIA)
About Us
Career Opportunities